[[{"header":{"parameterUnit":"m.s-1","parameterCategory":2,"la1":30.2991,"la2":30.254,"lo1":-89.0895,"lo2":-89.0444,"dy":0.0017,"dx":0.0017,"nx":28,"ny":28,"refTime":"2024-04-06T21:00:00:Z","depth":"0","parameterNumber":2,"parameterNumberName":"U-component_of_CURRENTS"},"data":[0,0,0,0,0,0,0,0,0,0,0,0,0,0,0,0,0,0,0,0,0,0,0,0,0,0,0,0,0,0,0,0,0,0,0,0,0,0,0,0,0,0,0,0,0,0,0,0,0,0,0,0,0,0,0,0,0,0,-0.1527,-0.1527,0,-0.1468,-0.1467,-0.1466,-0.1388,-0.1387,-0.1386,-0.1385,-0.1313,-0.1312,-0.1311,0,0,0,0,0,0,0,0,0,0,0,0,0,-0.1655,-0.1653,-0.1527,-0.1527,-0.1526,-0.1468,-0.1467,-0.1466,-0.1389,-0.1387,-0.1386,-0.1384,-0.1313,-0.1312,-0.1311,0,0,0,0,0,0,0,0,0,0,0,0,0,-0.1597,-0.1652,-0.1528,-0.1481,-0.1476,-0.1468,-0.1467,-0.1466,-0.1389,-0.1387,-0.1385,-0.1384,-0.1313,-0.1312,-0.1311,-0.134,0,0,-0.1307,-0.1307,0,0,0,0,0,0,0,0,-0.1601,-0.1593,-0.1488,-0.1484,-0.1479,-0.1434,-0.1485,-0.1423,-0.1389,-0.1422,-0.1385,-0.1383,-0.1354,-0.1349,-0.1341,-0.1337,-0.1334,-0.1307,-0.1306,-0.1306,-0.1305,0,0,0,0,0,0,0,-0.1605,-0.1595,-0.1503,-0.1488,-0.1482,-0.1491,-0.1479,-0.1474,-0.1398,-0.1419,-0.1413,-0.1408,-0.1351,-0.1343,-0.1339,-0.1333,-0.1307,-0.1306,-0.1305,-0.1305,-0.1356,-0.1358,0,0,0,0,0,0,-0.161,-0.1599,-0.1505,-0.1501,-0.1537,-0.1489,-0.1477,-0.145,-0.1398,-0.1389,-0.1409,-0.1404,-0.1346,-0.1341,-0.1336,-0.1392,-0.1306,-0.1305,-0.1304,-0.1354,-0.1356,-0.1359,0,0,0,0,0,0,-0.1613,-0.1602,-0.1507,-0.1551,-0.1539,-0.1488,-0.1459,-0.145,-0.1434,-0.1391,-0.1381,-0.1403,-0.1344,-0.1338,-0.1337,-0.1388,-0.1304,-0.1303,-0.1351,-0.1355,-0.1357,-0.1489,0,0,0,0,0,0,-0.1617,-0.1603,-0.1587,-0.155,-0.1537,-0.1525,-0.1461,-0.145,-0.1435,-0.1427,-0.1383,-0.1374,-0.1342,-0.1339,-0.1336,-0.1385,-0.1302,-0.1349,-0.1353,-0.1356,-0.1482,-0.1496,-0.1508,0,0,0,0,0,-0.1621,-0.1618,-0.1586,-0.1575,-0.1515,-0.1527,-0.1523,-0.148,-0.1436,-0.1454,-0.1412,-0.1375,-0.1361,-0.134,-0.1335,-0.1385,-0.1347,-0.1352,-0.1356,-0.1476,-0.1493,-0.1508,0,0,0,0,0,0,-0.1664,-0.1609,-0.1573,-0.155,-0.1546,-0.1514,-0.1521,-0.1488,-0.1468,-0.146,-0.1398,-0.1389,-0.1412,-0.1379,-0.1356,-0.1411,-0.1351,-0.1355,-0.1444,-0.1459,-0.1472,-0.1467,-0.1301,0,0,0,0,0,-0.1666,-0.1641,-0.161,-0.1592,-0.1595,-0.1557,-0.1552,-0.1536,-0.1512,-0.15,-0.1467,-0.1439,-0.1432,-0.1426,-0.142,-0.1446,-0.1384,-0.1477,-0.149,-0.1501,-0.1494,-0.1468,-0.1478,-0.1374,-0.1374,-0.1374,0,0,-0.1671,-0.1642,-0.1622,-0.16,-0.1586,-0.1623,-0.155,-0.1567,-0.159,-0.15,-0.1518,-0.1488,-0.145,-0.1483,-0.149,-0.1457,-0.1494,-0.1507,-0.1517,-0.1503,-0.1474,-0.1484,-0.1492,-0.1377,-0.1376,-0.1376,0,0,-0.1717,-0.1654,-0.1674,-0.1683,-0.1687,-0.1674,-0.1683,-0.1671,-0.1656,-0.1676,-0.1618,-0.1613,-0.1601,-0.1587,-0.1573,-0.1655,-0.1568,-0.1657,-0.1717,-0.1693,-0.1701,-0.1707,-0.1619,-0.1616,-0.1661,-0.1661,-0.1661,0,-0.1732,-0.174,-0.1689,-0.1737,-0.1746,-0.1703,-0.1757,-0.1753,-0.1742,-0.1724,-0.1704,-0.167,-0.1653,-0.1662,-0.1696,-0.1687,-0.1627,-0.1662,-0.171,-0.1715,-0.1719,-0.1626,-0.1621,-0.1668,-0.1667,-0.1667,-0.1666,0,-0.181,-0.1825,-0.1848,-0.1874,-0.1885,-0.1928,-0.1919,-0.1926,-0.1895,-0.187,-0.1867,-0.1837,-0.1802,-0.1817,-0.1783,-0.1809,-0.174,-0.1733,-0.1668,-0.1737,-0.1635,-0.1627,-0.1678,-0.1675,-0.1673,-0.1672,0,0,-0.1821,-0.1889,-0.1897,-0.1921,-0.1961,-0.1969,-0.2017,-0.2021,-0.2004,-0.2009,-0.1982,-0.2001,-0.1948,-0.193,-0.1892,-0.188,-0.1869,-0.1824,-0.182,-0.1732,-0.1759,-0.1683,-0.1666,-0.1867,-0.1868,-0.1868,-0.1667,0,-0.19,-0.2011,-0.2018,-0.2098,-0.2145,-0.212,-0.2142,-0.2135,-0.2108,-0.2077,-0.204,-0.2008,-0.2001,-0.1971,-0.1973,-0.1876,-0.1858,-0.1919,-0.1707,-0.17,-0.1623,-0.166,-0.1586,-0.1399,-0.1659,-0.1657,-0.1656,0,-0.198,-0.2033,-0.2144,-0.2172,-0.2183,-0.2217,-0.2195,-0.2214,-0.217,-0.2138,-0.2113,-0.2055,-0.2023,-0.2016,-0.1909,-0.194,-0.1871,-0.1807,-0.1798,-0.1674,-0.1613,-0.1377,-0.1375,-0.1357,-0.1644,-0.1645,-0.1646,0,-0.2004,-0.2106,-0.2183,-0.2206,-0.2248,-0.2255,-0.2254,-0.2226,-0.2185,-0.216,-0.2098,-0.2076,-0.1994,-0.1957,-0.1832,-0.1864,-0.1685,-0.1709,-0.1573,-0.1563,-0.1429,-0.1409,-0.1381,-0.166,-0.1661,-0.1661,-0.1662,0,-0.2085,-0.213,-0.2192,-0.223,-0.223,-0.2267,-0.2237,-0.2227,-0.2188,-0.2102,-0.2112,-0.2021,-0.1976,-0.1861,-0.1811,-0.1637,-0.1665,-0.1571,-0.152,-0.1471,-0.1457,-0.1377,-0.1393,-0.1654,-0.1655,-0.1657,-0.1658,0,-0.2094,-0.2171,-0.2208,-0.2251,-0.2246,-0.223,-0.2179,-0.2133,-0.2131,-0.2021,-0.1998,-0.1927,-0.178,-0.1708,-0.1581,-0.1547,-0.1391,-0.1378,-0.129,-0.1235,-0.1129,-0.1153,-0.1028,-0.1007,-0.1199,-0.1196,-0.1194,0,-0.2114,-0.2152,-0.2165,-0.2129,-0.2139,-0.2117,-0.2062,-0.208,-0.2015,-0.1933,-0.1848,-0.1722,-0.1588,-0.1379,-0.1298,-0.1169,-0.1218,-0.105,-0.114,-0.1104,-0.1094,-0.1129,-0.1126,-0.0988,-0.0984,-0.0981,-0.0978,0,-0.207,-0.2067,-0.2069,-0.2012,-0.1964,-0.1913,-0.186,-0.1821,-0.1804,-0.1733,-0.1613,-0.1529,-0.132,-0.1148,-0.1004,-0.0953,-0.1026,-0.098,-0.0978,-0.0958,-0.0956,-0.0916,-0.11,-0.095,-0.0953,-0.0955,-0.0957,-0.0958,-0.195,-0.1918,-0.1893,-0.1821,-0.1769,-0.1704,-0.1635,-0.16,-0.1525,-0.1406,-0.1397,-0.1219,-0.1057,-0.0845,-0.0789,-0.0683,-0.0773,-0.0688,-0.0718,-0.0754,-0.0765,-0.0865,-0.0656,-0.0658,-0.0659,-0.0659,-0.066,0,-0.1756,-0.1741,-0.168,-0.1601,-0.1499,-0.1534,-0.1459,-0.1382,-0.1281,-0.1185,-0.1088,-0.0852,-0.0698,-0.0594,-0.0471,-0.0439,-0.0478,-0.0451,-0.0505,-0.0516,-0.0608,-0.0633,-0.0369,-0.0369,-0.0369,-0.0369,-0.0369,-0.0369,-0.1638,-0.153,-0.1523,-0.1335,-0.129,-0.1156,-0.1111,-0.1048,-0.096,-0.0755,-0.059,-0.0487,-0.0387,-0.0345,-0.0305,-0.031,-0.0351,-0.0313,-0.0373,-0.0464,-0.049,-0.0515,-0.0545,-0.0267,-0.0266,-0.0262,-0.0262,-0.0262]},{"header":{"parameterUnit":"m.s-1","parameterCategory":2,"la1":30.2991,"la2":30.254,"lo1":-89.0895,"lo2":-89.0444,"dy":0.0017,"dx":0.0017,"nx":28,"ny":28,"refTime":"2024-04-06T21:00:00:Z","depth":"0","parameterNumber":3,"parameterNumberName":"V-component_of_CURRENTS"},"data":[0,0,0,0,0,0,0,0,0,0,0,0,0,0,0,0,0,0,0,0,0,0,0,0,0,0,0,0,0,0,0,0,0,0,0,0,0,0,0,0,0,0,0,0,0,0,0,0,0,0,0,0,0,0,0,0,0,0,0.0452,0.0453,0,0.0556,0.0557,0.0558,0.0592,0.0592,0.0592,0.0591,0.0639,0.064,0.0642,0,0,0,0,0,0,0,0,0,0,0,0,0,0.026,0.0263,0.0452,0.0453,0.0455,0.0555,0.0557,0.0558,0.0593,0.0592,0.0592,0.0591,0.0638,0.064,0.0642,0,0,0,0,0,0,0,0,0,0,0,0,0,0.0351,0.0264,0.0452,0.0484,0.0488,0.0555,0.0557,0.0558,0.0593,0.0592,0.0591,0.0591,0.0637,0.064,0.0642,0.0669,0,0,0.065,0.0651,0,0,0,0,0,0,0,0,0.0346,0.0358,0.0478,0.0482,0.0487,0.0561,0.0506,0.0593,0.0593,0.0553,0.0591,0.0591,0.0608,0.0613,0.0634,0.0671,0.0673,0.065,0.0651,0.0652,0.0653,0,0,0,0,0,0,0,0.0339,0.0354,0.0493,0.048,0.0485,0.0485,0.0498,0.0523,0.0581,0.0556,0.0559,0.0571,0.061,0.0632,0.0635,0.0674,0.065,0.0652,0.0653,0.0654,0.0709,0.0709,0,0,0,0,0,0,0.033,0.0348,0.0489,0.0496,0.0414,0.0489,0.0503,0.0537,0.0582,0.0589,0.0572,0.0572,0.0628,0.0632,0.0637,0.064,0.0652,0.0655,0.0656,0.0709,0.0709,0.0709,0,0,0,0,0,0,0.0326,0.0343,0.0485,0.0423,0.0441,0.0494,0.0531,0.054,0.0555,0.0595,0.06,0.0577,0.0627,0.0633,0.0651,0.0643,0.0656,0.0658,0.0709,0.0709,0.0709,0.0665,0,0,0,0,0,0,0.0321,0.0341,0.0358,0.0423,0.0444,0.0504,0.0532,0.0542,0.0564,0.0566,0.0601,0.0606,0.0627,0.0647,0.0654,0.0646,0.066,0.0709,0.0709,0.0709,0.0667,0.0664,0.0661,0,0,0,0,0,0.0314,0.0336,0.0359,0.0376,0.0469,0.0503,0.0513,0.0547,0.0564,0.0561,0.0593,0.0604,0.0652,0.065,0.0657,0.065,0.0709,0.0709,0.0709,0.0668,0.0665,0.0662,0,0,0,0,0,0,0.0278,0.0344,0.037,0.0418,0.0448,0.0508,0.0515,0.0543,0.057,0.0572,0.0608,0.0615,0.0628,0.0647,0.0644,0.0666,0.0681,0.0682,0.0647,0.0644,0.0641,0.062,0.0662,0,0,0,0,0,0.0276,0.0301,0.0362,0.0398,0.041,0.0462,0.0481,0.0506,0.0542,0.0554,0.0579,0.0609,0.0637,0.0645,0.067,0.0683,0.0702,0.0683,0.068,0.0677,0.0665,0.0688,0.0685,0.0709,0.0709,0.0709,0,0,0.0277,0.0313,0.0331,0.0388,0.0418,0.043,0.0471,0.0495,0.0507,0.0554,0.0568,0.0601,0.064,0.0655,0.0662,0.0666,0.0683,0.0677,0.0675,0.0664,0.0687,0.0685,0.0683,0.0709,0.0709,0.0709,0,0,0.0257,0.0315,0.031,0.0332,0.0368,0.0405,0.0407,0.0457,0.0476,0.0502,0.054,0.0564,0.0604,0.0628,0.0649,0.0646,0.0671,0.0653,0.0619,0.064,0.0638,0.0637,0.0667,0.0669,0.0648,0.0648,0.0648,0,0.025,0.0265,0.0313,0.0307,0.0322,0.0387,0.0381,0.0417,0.0466,0.0476,0.0494,0.056,0.0591,0.0616,0.0617,0.0638,0.0657,0.0627,0.0635,0.0634,0.0633,0.0665,0.0667,0.0646,0.0646,0.0646,0.0647,0,0.0211,0.0228,0.0226,0.0245,0.0267,0.0275,0.0329,0.0351,0.0389,0.0422,0.0452,0.0505,0.0541,0.0558,0.0589,0.0598,0.0618,0.0632,0.064,0.0628,0.0663,0.0666,0.0643,0.0644,0.0644,0.0645,0,0,0.0179,0.0194,0.0189,0.0188,0.0234,0.0249,0.0273,0.0307,0.0329,0.0368,0.0392,0.0438,0.047,0.0494,0.0538,0.0556,0.0577,0.0585,0.0587,0.0608,0.063,0.0559,0.0556,0.059,0.059,0.059,0.066,0,0.0127,0.0091,0.0123,0.0112,0.0105,0.0174,0.0195,0.0238,0.0291,0.0333,0.0385,0.0429,0.0447,0.048,0.0493,0.0576,0.058,0.0557,0.0644,0.0647,0.0579,0.0555,0.0551,0.0604,0.0663,0.0664,0.0664,0,0.0055,0.0051,0.0011,0.0047,0.0052,0.0063,0.0117,0.0144,0.0222,0.0268,0.0311,0.0375,0.0427,0.0446,0.0527,0.0512,0.0551,0.0599,0.0603,0.0548,0.058,0.0625,0.0608,0.0662,0.0669,0.0669,0.0668,0,-0.0035,-0.0029,-0.0066,-0.0058,-0.0006,-0.0001,0.0035,0.0107,0.0153,0.023,0.0296,0.0343,0.0414,0.0451,0.0544,0.0543,0.0632,0.0651,0.0613,0.0611,0.0628,0.0624,0.0662,0.067,0.067,0.0669,0.0669,0,-0.0118,-0.0136,-0.011,-0.0126,-0.0125,-0.0074,-0.0055,0.0005,0.0098,0.0165,0.0251,0.0329,0.0419,0.0495,0.0539,0.0582,0.0624,0.0593,0.0612,0.0612,0.0607,0.067,0.0693,0.0672,0.0671,0.0671,0.067,0,-0.0212,-0.0209,-0.0229,-0.0193,-0.0174,-0.0178,-0.009,-0.005,0.0041,0.0144,0.0182,0.0335,0.0414,0.0487,0.0578,0.059,0.0644,0.0628,0.0619,0.0632,0.0608,0.0628,0.0635,0.0659,0.0595,0.0594,0.0592,0,-0.0262,-0.0294,-0.0281,-0.027,-0.0251,-0.0233,-0.0189,-0.0097,-0.0028,0.0151,0.0216,0.0327,0.0394,0.0488,0.0519,0.0552,0.0597,0.0572,0.0542,0.0584,0.0623,0.0623,0.0645,0.0576,0.0574,0.0573,0.0572,0,-0.0317,-0.0327,-0.033,-0.0308,-0.028,-0.025,-0.018,-0.0138,-0.0004,0.0086,0.0218,0.0276,0.037,0.041,0.0444,0.0463,0.0582,0.0544,0.061,0.0604,0.0589,0.0631,0.0566,0.0563,0.0564,0.0564,0.0565,0.0565,-0.033,-0.0339,-0.0327,-0.0294,-0.0279,-0.0233,-0.0213,-0.013,-0.005,0.0131,0.0185,0.0341,0.037,0.0397,0.0412,0.0481,0.0473,0.0517,0.0542,0.0542,0.0532,0.0418,0.0407,0.0407,0.0407,0.0407,0.0407,0,-0.029,-0.0284,-0.0278,-0.0248,-0.0232,-0.022,-0.0157,-0.0126,-0.0058,0.0136,0.0229,0.0439,0.0422,0.0487,0.0514,0.0529,0.0545,0.055,0.06,0.0627,0.0563,0.0528,0.0514,0.0514,0.0514,0.0514,0.0514,0.0514,-0.0255,-0.0224,-0.0209,-0.0163,-0.0169,-0.0142,-0.0124,-0.0089,0.0029,0.0266,0.0517,0.0675,0.0778,0.0647,0.0656,0.0642,0.071,0.0643,0.0692,0.0704,0.0705,0.0706,0.0679,0.0698,0.0698,0.0765,0.0766,0.0767]}],[{"header":{"parameterUnit":"m.s-1","parameterCategory":2,"la1":30.2991,"la2":30.254,"lo1":-89.0895,"lo2":-89.0444,"dy":0.0017,"dx":0.0017,"nx":28,"ny":28,"refTime":"2024-04-06T21:00:00:Z","depth":"2","parameterNumber":2,"parameterNumberName":"U-component_of_CURRENTS"},"data":[0,0,0,0,0,0,0,0,0,0,0,0,0,0,0,0,0,0,0,0,0,0,0,0,0,0,0,0,0,0,0,0,0,0,0,0,0,0,0,0,0,0,0,0,0,0,0,0,0,0,0,0,0,0,0,0,0,0,-0.1375,-0.1376,0,-0.1427,-0.1427,-0.1428,-0.1399,-0.1398,-0.1397,-0.1396,-0.153,-0.1535,-0.1539,0,0,0,0,0,0,0,0,0,0,0,0,0,-0.1403,-0.1401,-0.1375,-0.1376,-0.1377,-0.1427,-0.1427,-0.1428,-0.1399,-0.1398,-0.1396,-0.1395,-0.1529,-0.1534,-0.154,0,0,0,0,0,0,0,0,0,0,0,0,0,-0.1413,-0.1401,-0.1375,-0.1371,-0.1371,-0.1427,-0.1427,-0.1428,-0.14,-0.1398,-0.1396,-0.1394,-0.1527,-0.1534,-0.154,-0.1618,0,0,-0.1562,-0.1565,0,0,0,0,0,0,0,0,-0.1412,-0.1412,-0.1371,-0.1371,-0.1372,-0.1408,-0.1487,-0.1497,-0.14,-0.1386,-0.1396,-0.1394,-0.15,-0.1509,-0.1517,-0.1624,-0.163,-0.1562,-0.1567,-0.157,-0.1572,0,0,0,0,0,0,0,-0.1412,-0.141,-0.1392,-0.1372,-0.1373,-0.1419,-0.1417,-0.1489,-0.1451,-0.1387,-0.1385,-0.1397,-0.15,-0.151,-0.152,-0.1632,-0.1562,-0.1568,-0.1573,-0.1575,-0.1747,-0.1748,0,0,0,0,0,0,-0.1405,-0.1409,-0.1391,-0.1394,-0.1392,-0.142,-0.1417,-0.1395,-0.1448,-0.1455,-0.1398,-0.1395,-0.1499,-0.1512,-0.1525,-0.1601,-0.157,-0.1576,-0.158,-0.1747,-0.1747,-0.1748,0,0,0,0,0,0,-0.1405,-0.1402,-0.1389,-0.1408,-0.1409,-0.142,-0.1397,-0.1397,-0.1434,-0.1457,-0.1464,-0.1437,-0.1498,-0.1515,-0.1613,-0.1607,-0.1579,-0.1586,-0.1747,-0.1747,-0.1748,-0.1766,0,0,0,0,0,0,-0.1405,-0.14,-0.14,-0.1406,-0.1408,-0.1454,-0.1399,-0.14,-0.1444,-0.1441,-0.1494,-0.1502,-0.1498,-0.1603,-0.162,-0.1616,-0.1591,-0.1746,-0.1747,-0.1747,-0.1765,-0.1767,-0.1769,0,0,0,0,0,-0.1405,-0.1397,-0.1398,-0.1398,-0.1399,-0.1457,-0.1464,-0.1464,-0.1448,-0.1487,-0.1512,-0.1501,-0.1616,-0.1612,-0.1631,-0.1628,-0.1746,-0.1747,-0.1747,-0.1764,-0.1767,-0.1769,0,0,0,0,0,0,-0.1419,-0.1395,-0.1395,-0.1383,-0.1438,-0.1454,-0.1481,-0.1495,-0.1544,-0.1545,-0.1553,-0.1566,-0.1628,-0.1645,-0.1639,-0.1674,-0.1662,-0.1667,-0.1668,-0.1671,-0.1673,-0.1681,-0.1597,0,0,0,0,0,-0.1422,-0.1405,-0.1426,-0.1433,-0.1452,-0.1481,-0.1508,-0.1524,-0.1561,-0.158,-0.1609,-0.1629,-0.1645,-0.1676,-0.1704,-0.1772,-0.1742,-0.1766,-0.1768,-0.177,-0.1787,-0.1754,-0.1754,-0.1751,-0.1751,-0.1751,0,0,-0.1433,-0.1421,-0.1414,-0.1437,-0.1465,-0.1531,-0.1492,-0.1553,-0.1605,-0.1594,-0.167,-0.1661,-0.1667,-0.1705,-0.1732,-0.1725,-0.1745,-0.1771,-0.1773,-0.179,-0.1755,-0.1755,-0.1755,-0.1751,-0.1751,-0.1751,0,0,-0.146,-0.1438,-0.1444,-0.1505,-0.1564,-0.1586,-0.1617,-0.1662,-0.1671,-0.1754,-0.172,-0.1728,-0.1789,-0.1767,-0.1765,-0.1814,-0.1759,-0.1797,-0.1823,-0.179,-0.179,-0.179,-0.1707,-0.1699,-0.1796,-0.1796,-0.1796,0,-0.1483,-0.148,-0.1474,-0.1535,-0.1594,-0.162,-0.1699,-0.1725,-0.18,-0.1795,-0.1785,-0.1793,-0.1809,-0.181,-0.1802,-0.1819,-0.177,-0.1812,-0.1792,-0.1791,-0.1791,-0.1707,-0.1698,-0.1797,-0.1797,-0.1796,-0.1796,0,-0.1541,-0.156,-0.1584,-0.1648,-0.173,-0.1796,-0.1854,-0.1897,-0.19,-0.1894,-0.1897,-0.1892,-0.1877,-0.1863,-0.1855,-0.1839,-0.1793,-0.1797,-0.1784,-0.1792,-0.1702,-0.1693,-0.1798,-0.1798,-0.1797,-0.1797,0,0,-0.151,-0.1593,-0.1611,-0.1645,-0.1793,-0.1842,-0.1946,-0.1991,-0.1987,-0.2015,-0.1993,-0.1995,-0.1936,-0.193,-0.1893,-0.1869,-0.1807,-0.1832,-0.1829,-0.1746,-0.1684,-0.1603,-0.1584,-0.1798,-0.1798,-0.1798,-0.1606,0,-0.1552,-0.1635,-0.1707,-0.1823,-0.1859,-0.1957,-0.2028,-0.2087,-0.209,-0.2071,-0.202,-0.1984,-0.1974,-0.1927,-0.1912,-0.1826,-0.1791,-0.1856,-0.1693,-0.1688,-0.1613,-0.1575,-0.1496,-0.1316,-0.1597,-0.1595,-0.1594,0,-0.1592,-0.1615,-0.1733,-0.1818,-0.1852,-0.1953,-0.2036,-0.2105,-0.2105,-0.2086,-0.2056,-0.2002,-0.195,-0.1942,-0.1824,-0.1856,-0.1786,-0.1727,-0.1718,-0.1639,-0.1592,-0.1363,-0.1288,-0.1578,-0.1579,-0.158,-0.1581,0,-0.1517,-0.1636,-0.1708,-0.1768,-0.1889,-0.1952,-0.2018,-0.2085,-0.2081,-0.2076,-0.2027,-0.1986,-0.19,-0.1853,-0.1733,-0.1766,-0.1586,-0.1613,-0.1476,-0.1466,-0.137,-0.1353,-0.1555,-0.1555,-0.1555,-0.1556,-0.1557,0,-0.1509,-0.1552,-0.1663,-0.1691,-0.1747,-0.1885,-0.1923,-0.1981,-0.2002,-0.1952,-0.1996,-0.192,-0.1873,-0.1764,-0.1709,-0.1531,-0.1558,-0.1467,-0.1419,-0.1368,-0.1354,-0.1579,-0.1585,-0.1549,-0.155,-0.1552,-0.1553,0,-0.1445,-0.1516,-0.158,-0.1688,-0.1711,-0.1771,-0.1852,-0.183,-0.1892,-0.1836,-0.1817,-0.1804,-0.1669,-0.1605,-0.1476,-0.1441,-0.1326,-0.1269,-0.1185,-0.1133,-0.1233,-0.1242,-0.1093,-0.1088,-0.1085,-0.1082,-0.1079,0,-0.1413,-0.1436,-0.1561,-0.1566,-0.1622,-0.1679,-0.1673,-0.1757,-0.1731,-0.174,-0.1673,-0.1576,-0.1465,-0.1264,-0.1191,-0.1056,-0.1156,-0.0929,-0.1014,-0.1221,-0.1189,-0.1204,-0.1217,-0.0862,-0.0858,-0.0854,-0.0852,0,-0.1335,-0.1419,-0.1467,-0.146,-0.1476,-0.1482,-0.1487,-0.1461,-0.1521,-0.1487,-0.141,-0.1341,-0.1176,-0.1006,-0.0878,-0.0822,-0.0956,-0.0855,-0.1067,-0.1011,-0.0994,-0.0966,-0.0988,-0.0821,-0.0824,-0.0827,-0.0828,-0.0829,-0.1277,-0.1301,-0.1342,-0.1343,-0.1349,-0.1292,-0.1251,-0.1237,-0.1195,-0.1149,-0.1153,-0.103,-0.0971,-0.0723,-0.0639,-0.0604,-0.0692,-0.069,-0.0704,-0.0721,-0.0749,-0.0729,-0.0507,-0.0509,-0.051,-0.0511,-0.0511,0,-0.1153,-0.1172,-0.1169,-0.1157,-0.1112,-0.1159,-0.1107,-0.1037,-0.0963,-0.0921,-0.0852,-0.0681,-0.0566,-0.052,-0.0406,-0.0379,-0.0431,-0.0376,-0.0452,-0.048,-0.0506,-0.0529,-0.0225,-0.0225,-0.0224,-0.0223,0,0,-0.1069,-0.1014,-0.101,-0.0908,-0.0908,-0.0803,-0.0772,-0.0708,-0.0659,-0.0555,-0.0495,-0.0519,-0.0485,-0.0348,-0.0315,-0.0243,-0.0367,-0.0232,-0.046,-0.0576,-0.0601,-0.068,-0.0744,0,0,0,0,0]},{"header":{"parameterUnit":"m.s-1","parameterCategory":2,"la1":30.2991,"la2":30.254,"lo1":-89.0895,"lo2":-89.0444,"dy":0.0017,"dx":0.0017,"nx":28,"ny":28,"refTime":"2024-04-06T21:00:00:Z","depth":"2","parameterNumber":3,"parameterNumberName":"V-component_of_CURRENTS"},"data":[0,0,0,0,0,0,0,0,0,0,0,0,0,0,0,0,0,0,0,0,0,0,0,0,0,0,0,0,0,0,0,0,0,0,0,0,0,0,0,0,0,0,0,0,0,0,0,0,0,0,0,0,0,0,0,0,0,0,-0.0665,-0.0665,0,-0.0664,-0.0663,-0.0663,-0.0669,-0.0669,-0.067,-0.067,-0.0661,-0.0661,-0.066,0,0,0,0,0,0,0,0,0,0,0,0,0,-0.0601,-0.0603,-0.0665,-0.0665,-0.0666,-0.0664,-0.0663,-0.0663,-0.0669,-0.0669,-0.067,-0.067,-0.0662,-0.0661,-0.066,0,0,0,0,0,0,0,0,0,0,0,0,0,-0.0615,-0.0603,-0.0665,-0.067,-0.067,-0.0664,-0.0663,-0.0663,-0.0669,-0.0669,-0.067,-0.067,-0.0662,-0.0661,-0.066,-0.0643,0,0,-0.0657,-0.0657,0,0,0,0,0,0,0,0,-0.0615,-0.0617,-0.0669,-0.067,-0.067,-0.0669,-0.0638,-0.0657,-0.0668,-0.0667,-0.067,-0.0671,-0.0664,-0.0663,-0.0658,-0.0643,-0.0642,-0.0657,-0.0657,-0.0656,-0.0656,0,0,0,0,0,0,0,-0.0614,-0.0617,-0.0662,-0.0669,-0.067,-0.0648,-0.0651,-0.0641,-0.066,-0.0667,-0.0668,-0.0671,-0.0664,-0.0659,-0.0658,-0.0642,-0.0657,-0.0657,-0.0656,-0.0656,-0.061,-0.061,0,0,0,0,0,0,-0.0622,-0.0617,-0.0662,-0.0662,-0.0646,-0.0649,-0.0652,-0.0667,-0.0661,-0.0661,-0.0671,-0.0672,-0.0661,-0.0659,-0.0658,-0.0627,-0.0656,-0.0656,-0.0655,-0.0611,-0.061,-0.061,0,0,0,0,0,0,-0.0621,-0.0627,-0.0662,-0.064,-0.0644,-0.065,-0.0666,-0.0667,-0.068,-0.0664,-0.0664,-0.0687,-0.0661,-0.0659,-0.0661,-0.0628,-0.0655,-0.0654,-0.0612,-0.0611,-0.061,-0.0572,0,0,0,0,0,0,-0.0619,-0.0626,-0.0645,-0.0642,-0.0645,-0.0681,-0.0666,-0.0666,-0.0682,-0.0683,-0.0677,-0.0676,-0.0661,-0.0663,-0.0661,-0.0627,-0.0654,-0.0613,-0.0611,-0.061,-0.0574,-0.057,-0.0566,0,0,0,0,0,-0.0617,-0.0644,-0.0646,-0.0652,-0.067,-0.0683,-0.0683,-0.0686,-0.0682,-0.0698,-0.0685,-0.0677,-0.0652,-0.0662,-0.066,-0.0625,-0.0613,-0.0612,-0.061,-0.0576,-0.0571,-0.0566,0,0,0,0,0,0,-0.0631,-0.0647,-0.0649,-0.0682,-0.0691,-0.0685,-0.0698,-0.0697,-0.0698,-0.0698,-0.068,-0.0678,-0.0662,-0.0658,-0.0669,-0.0609,-0.0627,-0.0625,-0.0602,-0.0597,-0.0593,-0.0549,-0.0653,0,0,0,0,0,-0.0641,-0.0666,-0.0673,-0.0701,-0.0705,-0.0703,-0.0709,-0.0712,-0.071,-0.0712,-0.0697,-0.0677,-0.0649,-0.0639,-0.0626,-0.0601,-0.0561,-0.0574,-0.057,-0.0567,-0.0529,-0.0419,-0.04,-0.0605,-0.0605,-0.0605,0,0,-0.0653,-0.0667,-0.0681,-0.0706,-0.0708,-0.0705,-0.0709,-0.0727,-0.0708,-0.0709,-0.0684,-0.0673,-0.0644,-0.061,-0.0601,-0.0604,-0.0502,-0.0565,-0.0562,-0.0525,-0.0415,-0.0395,-0.0377,-0.0604,-0.0604,-0.0604,0,0,-0.0681,-0.0702,-0.0724,-0.073,-0.0744,-0.0729,-0.074,-0.0736,-0.0722,-0.0706,-0.0685,-0.065,-0.0632,-0.0578,-0.0553,-0.052,-0.0491,-0.0529,-0.0461,-0.0355,-0.0336,-0.0319,-0.0299,-0.0279,-0.0518,-0.0518,-0.0518,0,-0.0693,-0.0721,-0.0733,-0.0746,-0.0735,-0.0739,-0.0733,-0.0719,-0.0713,-0.0666,-0.07,-0.0599,-0.0597,-0.0495,-0.0486,-0.0504,-0.0469,-0.0482,-0.0346,-0.0327,-0.031,-0.0293,-0.0272,-0.0516,-0.0516,-0.0516,-0.0517,0,-0.0724,-0.0745,-0.0758,-0.076,-0.0747,-0.0758,-0.0723,-0.0701,-0.0678,-0.0635,-0.0553,-0.0537,-0.0452,-0.0462,-0.0466,-0.0336,-0.0365,-0.0359,-0.0351,-0.0286,-0.0275,-0.0253,-0.0513,-0.0514,-0.0514,-0.0515,0,0,-0.0749,-0.0775,-0.0778,-0.0771,-0.0753,-0.0743,-0.0686,-0.0615,-0.0543,-0.0524,-0.0412,-0.0371,-0.033,-0.0298,-0.0289,-0.0217,-0.0106,-0.0235,-0.0231,-0.0204,0.0079,-0.0031,-0.002,-0.0067,-0.0062,-0.0057,0.0017,0,-0.0766,-0.0796,-0.078,-0.0766,-0.0766,-0.0712,-0.0651,-0.0577,-0.0499,-0.0396,-0.0329,-0.025,-0.0274,-0.0238,-0.015,-0.0121,-0.0039,-0.013,0.0004,0.0007,-0.0086,0.0007,0.0009,0.007,0.0038,0.0041,0.0044,0,-0.079,-0.0804,-0.0803,-0.0755,-0.0741,-0.0707,-0.0563,-0.0506,-0.0347,-0.0291,-0.0159,-0.0109,0.0004,-0.0037,0.0114,0.0057,0.0096,0.0106,0.011,0.0025,-0.006,0.0012,0.011,0.0079,0.0076,0.0074,0.0071,0,-0.0807,-0.0806,-0.0799,-0.0793,-0.0739,-0.068,-0.0614,-0.0459,-0.0394,-0.0201,-0.0145,0.0027,0.0073,0.0189,0.019,0.0187,0.0317,0.0321,0.0263,0.0251,0.0291,0.0274,0.0479,0.0479,0.0479,0.0479,0.0478,0,-0.0833,-0.0832,-0.0808,-0.0813,-0.0748,-0.0683,-0.0573,-0.047,-0.0333,-0.0247,-0.0087,-0.0042,0.0136,0.0209,0.0252,0.0291,0.0383,0.0307,0.0297,0.029,0.0273,0.0319,0.0299,0.0481,0.0481,0.048,0.048,0,-0.0867,-0.0869,-0.0847,-0.079,-0.0767,-0.0699,-0.0601,-0.0525,-0.0393,-0.0272,-0.0227,-0.0074,0.0026,0.0151,0.0294,0.0324,0.0387,0.0377,0.0299,0.0279,0.0241,0.0222,0.039,0.0387,0.0385,0.0383,0.0382,0,-0.0891,-0.0904,-0.0842,-0.0814,-0.0787,-0.0712,-0.067,-0.0557,-0.0484,-0.0344,-0.0303,-0.0173,-0.0084,0.0063,0.017,0.0289,0.0305,0.0318,0.034,0.0277,0.0249,0.0234,0.0218,0.0387,0.0385,0.0384,0.0383,0,-0.0923,-0.09,-0.0873,-0.0841,-0.0794,-0.0749,-0.0678,-0.0654,-0.0525,-0.0447,-0.0373,-0.0299,-0.0138,0.0,0.0138,0.0186,0.0312,0.0295,0.0334,0.0373,0.0271,0.0243,0.023,0.0374,0.0375,0.0375,0.0376,0.0376,-0.093,-0.0904,-0.0883,-0.0844,-0.0791,-0.0763,-0.0737,-0.0684,-0.0615,-0.0473,-0.0449,-0.0329,-0.0165,0.003,0.0116,0.0199,0.0218,0.0272,0.0278,0.0285,0.0236,0.0134,0.0197,0.0197,0.0197,0.0197,0.0197,0,-0.0951,-0.0938,-0.0902,-0.0849,-0.0818,-0.0783,-0.0731,-0.0705,-0.0642,-0.0533,-0.0435,-0.0297,-0.0141,-0.0007,0.0128,0.0209,0.025,0.0212,0.0286,0.0294,0.0301,0.0256,0.0221,0.0221,0.0222,0.0222,0,0,-0.096,-0.095,-0.0933,-0.0891,-0.0854,-0.0819,-0.0788,-0.0722,-0.0646,-0.0536,-0.0448,-0.0307,-0.0155,-0.0045,0.0088,0.0154,0.0192,0.0147,0.012,0.02,0.0207,0.0328,0.0265,0,0,0,0,0]}],[{"header":{"parameterUnit":"m.s-1","parameterCategory":2,"la1":30.2991,"la2":30.254,"lo1":-89.0895,"lo2":-89.0444,"dy":0.0017,"dx":0.0017,"nx":28,"ny":28,"refTime":"2024-04-06T21:00:00:Z","depth":"4","parameterNumber":2,"parameterNumberName":"U-component_of_CURRENTS"},"data":[0,0,0,0,0,0,0,0,0,0,0,0,0,0,0,0,0,0,0,0,0,0,0,0,0,0,0,0,0,0,0,0,0,0,0,0,0,0,0,0,0,0,0,0,0,0,0,0,0,0,0,0,0,0,0,0,0,0,-0.0692,-0.0693,0,-0.0728,-0.0728,-0.0728,-0.0728,-0.0727,-0.0727,-0.0726,-0.0726,-0.0726,-0.0726,0,0,0,0,0,0,0,0,0,0,0,0,0,-0.0631,-0.0632,-0.0692,-0.0693,-0.0693,-0.0728,-0.0728,-0.0728,-0.0728,-0.0727,-0.0727,-0.0726,-0.0726,-0.0726,-0.0726,0,0,0,0,0,0,0,0,0,0,0,0,0,-0.066,-0.0632,-0.0692,-0.0698,-0.0699,-0.0728,-0.0728,-0.0729,-0.0728,-0.0727,-0.0727,-0.0726,-0.0725,-0.0726,-0.0726,-0.0742,0,0,-0.0728,-0.0728,0,0,0,0,0,0,0,0,-0.0659,-0.0662,-0.0696,-0.0697,-0.0699,-0.0723,-0.0706,-0.0731,-0.0728,-0.0716,-0.0726,-0.0726,-0.0723,-0.0723,-0.0731,-0.0742,-0.0742,-0.0728,-0.0728,-0.0729,-0.0729,0,0,0,0,0,0,0,-0.0657,-0.0661,-0.0705,-0.0697,-0.0698,-0.0701,-0.0704,-0.0711,-0.0721,-0.0717,-0.0717,-0.0723,-0.0723,-0.073,-0.073,-0.0742,-0.0728,-0.0729,-0.0729,-0.0729,-0.0751,-0.0752,0,0,0,0,0,0,-0.0655,-0.0659,-0.0704,-0.0707,-0.0678,-0.0702,-0.0706,-0.0715,-0.0722,-0.0722,-0.0723,-0.0722,-0.0729,-0.073,-0.073,-0.0761,-0.0729,-0.0729,-0.0729,-0.0751,-0.0752,-0.0752,0,0,0,0,0,0,-0.0653,-0.0658,-0.0703,-0.0684,-0.069,-0.0704,-0.0714,-0.0716,-0.073,-0.0727,-0.0727,-0.0735,-0.0729,-0.073,-0.0732,-0.076,-0.0729,-0.073,-0.0751,-0.0751,-0.0752,-0.0814,0,0,0,0,0,0,-0.0651,-0.0658,-0.0667,-0.0684,-0.0691,-0.0723,-0.0715,-0.0717,-0.0734,-0.0734,-0.0737,-0.0736,-0.0729,-0.0731,-0.0733,-0.076,-0.073,-0.075,-0.0751,-0.0752,-0.0811,-0.0816,-0.082,0,0,0,0,0,-0.0649,-0.0667,-0.0667,-0.0673,-0.0702,-0.0723,-0.0727,-0.0734,-0.0736,-0.0744,-0.0739,-0.0736,-0.0736,-0.0732,-0.0733,-0.0762,-0.075,-0.0751,-0.0751,-0.0809,-0.0815,-0.082,0,0,0,0,0,0,-0.0645,-0.0669,-0.067,-0.0694,-0.0707,-0.0723,-0.0737,-0.0742,-0.0748,-0.0748,-0.0741,-0.074,-0.0753,-0.0743,-0.0739,-0.0766,-0.0743,-0.0744,-0.0786,-0.0792,-0.0796,-0.0784,-0.0731,0,0,0,0,0,-0.0649,-0.067,-0.0685,-0.0705,-0.0712,-0.0726,-0.0738,-0.0743,-0.075,-0.0753,-0.0752,-0.075,-0.0758,-0.0762,-0.076,-0.0778,-0.0755,-0.0795,-0.0799,-0.0803,-0.0792,-0.0786,-0.0789,-0.0754,-0.0754,-0.0754,0,0,-0.0652,-0.067,-0.068,-0.0706,-0.0718,-0.0727,-0.0732,-0.0753,-0.0762,-0.0752,-0.0762,-0.0766,-0.0763,-0.078,-0.0786,-0.0777,-0.08,-0.0804,-0.0808,-0.0794,-0.0787,-0.079,-0.0793,-0.0754,-0.0754,-0.0754,0,0,-0.0665,-0.0685,-0.07,-0.0713,-0.0734,-0.0741,-0.0748,-0.0765,-0.0774,-0.0786,-0.0783,-0.0794,-0.0803,-0.0807,-0.0811,-0.0837,-0.0823,-0.0848,-0.0868,-0.0864,-0.0866,-0.0869,-0.0844,-0.0844,-0.0854,-0.0854,-0.0854,0,-0.0667,-0.0686,-0.0707,-0.072,-0.0731,-0.0746,-0.0755,-0.077,-0.0784,-0.079,-0.079,-0.0806,-0.0812,-0.0833,-0.0849,-0.0849,-0.0838,-0.0855,-0.0871,-0.0872,-0.0874,-0.0848,-0.0847,-0.0857,-0.0857,-0.0856,-0.0856,0,-0.0679,-0.0697,-0.071,-0.0727,-0.0741,-0.0757,-0.0773,-0.0786,-0.0798,-0.0808,-0.0829,-0.0837,-0.0847,-0.0862,-0.087,-0.0893,-0.0879,-0.0878,-0.086,-0.0881,-0.0852,-0.085,-0.0861,-0.086,-0.0859,-0.0859,0,0,-0.0679,-0.071,-0.0715,-0.0724,-0.0747,-0.076,-0.0777,-0.0794,-0.0802,-0.0824,-0.0832,-0.0868,-0.0881,-0.0885,-0.0903,-0.0907,-0.092,-0.0908,-0.0906,-0.0888,-0.0901,-0.0859,-0.0852,-0.0933,-0.0933,-0.0933,-0.0878,0,-0.068,-0.0701,-0.0718,-0.0737,-0.0746,-0.0766,-0.0775,-0.0795,-0.081,-0.082,-0.0846,-0.086,-0.089,-0.0905,-0.092,-0.0917,-0.0917,-0.0934,-0.0877,-0.0874,-0.084,-0.0849,-0.0933,-0.0876,-0.0875,-0.0875,-0.0874,0,-0.0677,-0.0696,-0.071,-0.0738,-0.0744,-0.0758,-0.0776,-0.0793,-0.0812,-0.0821,-0.0847,-0.0861,-0.0889,-0.0901,-0.0909,-0.0924,-0.0919,-0.0908,-0.0906,-0.084,-0.0829,-0.0848,-0.0869,-0.087,-0.087,-0.087,-0.0871,0,-0.0655,-0.069,-0.0702,-0.0712,-0.0742,-0.0757,-0.0778,-0.0796,-0.0803,-0.0829,-0.0823,-0.0858,-0.0866,-0.0877,-0.089,-0.0901,-0.0873,-0.0878,-0.0826,-0.0822,-0.0849,-0.0847,-0.0865,-0.0865,-0.0865,-0.0865,-0.0866,0,-0.064,-0.0656,-0.0699,-0.0707,-0.0727,-0.0756,-0.0773,-0.079,-0.0802,-0.0806,-0.0837,-0.0835,-0.0863,-0.0861,-0.0873,-0.0844,-0.0864,-0.0818,-0.0806,-0.0876,-0.0877,-0.0847,-0.0846,-0.0863,-0.0864,-0.0864,-0.0865,0,-0.0606,-0.0633,-0.0657,-0.07,-0.0715,-0.0736,-0.0771,-0.0768,-0.0793,-0.0794,-0.08,-0.081,-0.0809,-0.0818,-0.0814,-0.0805,-0.0788,-0.0771,-0.0831,-0.0824,-0.0738,-0.0741,-0.0689,-0.0687,-0.0686,-0.0685,-0.0683,0,-0.0588,-0.0595,-0.0646,-0.0658,-0.0683,-0.0719,-0.0721,-0.0757,-0.0752,-0.078,-0.0763,-0.0767,-0.0777,-0.0721,-0.075,-0.0735,-0.0738,-0.0712,-0.0738,-0.0727,-0.0721,-0.0726,-0.073,-0.0681,-0.068,-0.068,-0.068,0,-0.0556,-0.0577,-0.0591,-0.0615,-0.0633,-0.0651,-0.0672,-0.0662,-0.0698,-0.0723,-0.071,-0.0708,-0.069,-0.0689,-0.0673,-0.0676,-0.0722,-0.0695,-0.0698,-0.0722,-0.0716,-0.0713,-0.0719,-0.0674,-0.0675,-0.0675,-0.0676,0,-0.053,-0.0528,-0.0543,-0.0559,-0.0575,-0.0571,-0.0601,-0.0599,-0.0605,-0.0642,-0.0645,-0.0662,-0.0688,-0.0658,-0.0659,-0.0641,-0.0634,-0.0618,-0.0625,-0.0632,-0.0642,-0.0628,-0.0538,0,0,0,0,0,-0.0502,-0.0481,-0.0485,-0.0494,-0.0504,-0.0516,-0.0545,-0.0572,-0.0614,-0.0585,-0.0616,-0.061,-0.0602,-0.0612,-0.0579,-0.0625,-0.0631,-0.0585,-0.0615,-0.0643,-0.0649,-0.067,0,0,0,0,0,0,-0.0476,-0.0472,-0.0461,-0.0428,-0.0419,-0.0424,-0.0443,-0.0481,-0.0474,-0.0527,-0.0521,-0.0568,-0.0561,-0.0604,-0.0563,-0.0566,-0.0572,-0.0603,-0.0601,-0.0639,-0.0645,-0.065,-0.0673,0,0,0,0,0]},{"header":{"parameterUnit":"m.s-1","parameterCategory":2,"la1":30.2991,"la2":30.254,"lo1":-89.0895,"lo2":-89.0444,"dy":0.0017,"dx":0.0017,"nx":28,"ny":28,"refTime":"2024-04-06T21:00:00:Z","depth":"4","parameterNumber":3,"parameterNumberName":"V-component_of_CURRENTS"},"data":[0,0,0,0,0,0,0,0,0,0,0,0,0,0,0,0,0,0,0,0,0,0,0,0,0,0,0,0,0,0,0,0,0,0,0,0,0,0,0,0,0,0,0,0,0,0,0,0,0,0,0,0,0,0,0,0,0,0,-0.0321,-0.0321,0,-0.0323,-0.0323,-0.0324,-0.0314,-0.0313,-0.0313,-0.0313,-0.0337,-0.0338,-0.0339,0,0,0,0,0,0,0,0,0,0,0,0,0,-0.0342,-0.0342,-0.0321,-0.0321,-0.0321,-0.0323,-0.0323,-0.0324,-0.0314,-0.0313,-0.0313,-0.0312,-0.0337,-0.0338,-0.0339,0,0,0,0,0,0,0,0,0,0,0,0,0,-0.0339,-0.0342,-0.0321,-0.0315,-0.0315,-0.0323,-0.0323,-0.0324,-0.0314,-0.0313,-0.0313,-0.0312,-0.0336,-0.0338,-0.0339,-0.036,0,0,-0.0344,-0.0344,0,0,0,0,0,0,0,0,-0.0339,-0.0338,-0.0316,-0.0316,-0.0315,-0.0317,-0.034,-0.0336,-0.0314,-0.0315,-0.0313,-0.0312,-0.0332,-0.0334,-0.0337,-0.0361,-0.0362,-0.0344,-0.0345,-0.0345,-0.0346,0,0,0,0,0,0,0,-0.0339,-0.0338,-0.0323,-0.0316,-0.0316,-0.0325,-0.0323,-0.0339,-0.0328,-0.0315,-0.0314,-0.0313,-0.0332,-0.0335,-0.0337,-0.0362,-0.0344,-0.0345,-0.0346,-0.0347,-0.0438,-0.044,0,0,0,0,0,0,-0.0335,-0.0338,-0.0323,-0.0323,-0.0325,-0.0325,-0.0323,-0.0318,-0.0327,-0.0328,-0.0314,-0.0313,-0.0333,-0.0335,-0.0338,-0.0395,-0.0345,-0.0347,-0.0348,-0.0437,-0.0439,-0.044,0,0,0,0,0,0,-0.0336,-0.0334,-0.0322,-0.033,-0.0329,-0.0324,-0.0319,-0.0318,-0.0326,-0.0326,-0.0327,-0.0322,-0.0333,-0.0336,-0.0366,-0.0395,-0.0347,-0.0349,-0.0435,-0.0437,-0.044,-0.0489,0,0,0,0,0,0,-0.0336,-0.0334,-0.0335,-0.033,-0.0328,-0.0341,-0.0319,-0.0318,-0.0325,-0.0324,-0.0334,-0.0335,-0.0332,-0.0364,-0.0368,-0.0396,-0.035,-0.0433,-0.0436,-0.0439,-0.0485,-0.0493,-0.0499,0,0,0,0,0,-0.0337,-0.0341,-0.0335,-0.0333,-0.0328,-0.0342,-0.0343,-0.0338,-0.0326,-0.0341,-0.0347,-0.0335,-0.0385,-0.0367,-0.0371,-0.04,-0.0432,-0.0435,-0.0439,-0.0482,-0.0491,-0.0499,0,0,0,0,0,0,-0.035,-0.034,-0.0333,-0.0333,-0.0343,-0.034,-0.0349,-0.0345,-0.036,-0.0359,-0.0355,-0.0358,-0.0399,-0.0393,-0.0373,-0.0436,-0.0407,-0.0411,-0.0439,-0.0447,-0.0454,-0.0455,-0.0351,0,0,0,0,0,-0.0353,-0.0353,-0.035,-0.0353,-0.0356,-0.0354,-0.0359,-0.036,-0.0368,-0.0373,-0.038,-0.0392,-0.0417,-0.0425,-0.0446,-0.0477,-0.0454,-0.0499,-0.0505,-0.0511,-0.0516,-0.0527,-0.0535,-0.0452,-0.0452,-0.0452,0,0,-0.0358,-0.0353,-0.0352,-0.0356,-0.0358,-0.038,-0.0357,-0.0371,-0.0396,-0.0375,-0.0412,-0.0421,-0.0433,-0.0472,-0.0489,-0.0469,-0.0516,-0.0515,-0.052,-0.0522,-0.0532,-0.054,-0.0547,-0.0454,-0.0454,-0.0453,0,0,-0.0377,-0.0365,-0.0377,-0.0391,-0.0401,-0.0402,-0.0409,-0.0418,-0.0428,-0.0463,-0.0459,-0.0485,-0.0513,-0.053,-0.0541,-0.0598,-0.0558,-0.0602,-0.0631,-0.0642,-0.0649,-0.0655,-0.06,-0.0601,-0.0598,-0.0598,-0.0598,0,-0.0386,-0.0399,-0.0386,-0.0411,-0.0428,-0.0415,-0.0448,-0.0459,-0.0481,-0.0495,-0.0484,-0.0536,-0.0545,-0.0593,-0.0611,-0.0614,-0.0588,-0.0597,-0.065,-0.0655,-0.066,-0.0603,-0.0603,-0.0601,-0.0601,-0.06,-0.06,0,-0.0421,-0.0438,-0.0449,-0.0473,-0.0492,-0.0517,-0.053,-0.0549,-0.0553,-0.0564,-0.0611,-0.0622,-0.0651,-0.0658,-0.0652,-0.0697,-0.0653,-0.0661,-0.0625,-0.0671,-0.0608,-0.0607,-0.0605,-0.0604,-0.0603,-0.0602,0,0,-0.0424,-0.0465,-0.0472,-0.0497,-0.0529,-0.0546,-0.0587,-0.062,-0.0642,-0.0664,-0.0697,-0.0739,-0.0734,-0.0746,-0.0742,-0.0744,-0.0745,-0.0715,-0.0714,-0.0652,-0.0717,-0.0617,-0.0605,-0.0761,-0.0762,-0.0763,-0.0645,0,-0.0459,-0.0515,-0.0528,-0.0588,-0.0619,-0.0629,-0.0669,-0.0697,-0.071,-0.0737,-0.0749,-0.0784,-0.0772,-0.0783,-0.0791,-0.0765,-0.0751,-0.0773,-0.0689,-0.0686,-0.0586,-0.0606,-0.0767,-0.0644,-0.0643,-0.0643,-0.0643,0,-0.0494,-0.0526,-0.0592,-0.0646,-0.0659,-0.0695,-0.0741,-0.0773,-0.0804,-0.0817,-0.0843,-0.0845,-0.0863,-0.0845,-0.0816,-0.0828,-0.0781,-0.0745,-0.0741,-0.0633,-0.0586,-0.0598,-0.064,-0.0641,-0.0641,-0.0641,-0.0641,0,-0.0507,-0.0571,-0.0624,-0.0646,-0.0704,-0.0736,-0.0762,-0.08,-0.0819,-0.0863,-0.0867,-0.0899,-0.0888,-0.0874,-0.0795,-0.0814,-0.0725,-0.0748,-0.0604,-0.0593,-0.0695,-0.0691,-0.0728,-0.0728,-0.0729,-0.0729,-0.0729,0,-0.054,-0.0585,-0.0634,-0.0667,-0.0724,-0.0757,-0.0806,-0.0837,-0.0864,-0.0874,-0.0907,-0.0896,-0.0896,-0.084,-0.0796,-0.0669,-0.0727,-0.0601,-0.0569,-0.0712,-0.0712,-0.0691,-0.0688,-0.0725,-0.0726,-0.0726,-0.0727,0,-0.0556,-0.0593,-0.0652,-0.0714,-0.0736,-0.0774,-0.0819,-0.0843,-0.087,-0.0878,-0.0891,-0.0881,-0.08,-0.0751,-0.0683,-0.0635,-0.0555,-0.0493,-0.0591,-0.0567,-0.0411,-0.0413,-0.0343,-0.0339,-0.0335,-0.0332,-0.033,0,-0.0573,-0.0607,-0.0675,-0.0705,-0.0738,-0.0786,-0.0817,-0.0852,-0.0859,-0.0847,-0.084,-0.0772,-0.0748,-0.0555,-0.0528,-0.0412,-0.0401,-0.0356,-0.0448,-0.0403,-0.0378,-0.0386,-0.0392,-0.0324,-0.0323,-0.0322,-0.0321,0,-0.06,-0.0623,-0.0665,-0.072,-0.0762,-0.0791,-0.0825,-0.082,-0.0833,-0.0851,-0.0765,-0.0692,-0.057,-0.0489,-0.0374,-0.0311,-0.0403,-0.032,-0.0329,-0.0414,-0.0379,-0.036,-0.037,-0.0309,-0.031,-0.0312,-0.0312,0,-0.0615,-0.0642,-0.069,-0.0732,-0.0775,-0.0783,-0.0799,-0.0778,-0.0776,-0.075,-0.0706,-0.0615,-0.0572,-0.0428,-0.0338,-0.0249,-0.0254,-0.0266,-0.0278,-0.0291,-0.0324,-0.0275,-0.0139,0,0,0,0,0,-0.0631,-0.0659,-0.0697,-0.0742,-0.0771,-0.0791,-0.0801,-0.0802,-0.0794,-0.0719,-0.0707,-0.0593,-0.0436,-0.0385,-0.0274,-0.0294,-0.0256,-0.0164,-0.028,-0.024,-0.0254,-0.0296,0,0,0,0,0,0,-0.0647,-0.0691,-0.0699,-0.0728,-0.0751,-0.078,-0.0779,-0.0771,-0.0718,-0.0697,-0.0607,-0.0574,-0.0423,-0.0495,-0.0275,-0.0251,-0.0311,-0.0101,-0.0099,-0.0232,-0.0245,-0.0256,-0.0305,0,0,0,0,0]}]]